#timestamp,LO_Frequency,Hit,StdDev 
1459605615.1,286047006.9,N
1459605616.0,286047006.9,N
1459605635.8,286047010.7,Y
1459605655.6,286047010.1,P
1459605675.5,286047008.1,N
1459605695.3,286047008.4,N
1459605715.1,286047008.3,Y
1459605735.9,286046998.2,P
1459605755.7,286046996.7,N
1459605775.5,286046998.5,N
1459605795.4,286046996.6,N
1459605815.2,286046998.9,N
1459605835.0,286046996.6,N
1459605835.9,286046996.6,N
1459605855.8,286046995.3,N
1459605875.6,286046998.8,N
1459605895.4,286046997.1,N
1459605915.3,286046998.4,N
1459605935.1,286047000.2,N
1459605936.0,286047000.2,N
1459605955.8,286046999.4,N
1459605975.6,286046996.6,N
1459605995.5,286046998.7,N
1459606015.3,286046995.1,N
1459606035.1,286046995.7,N
1459606055.9,286046996.0,N
1459606075.7,286046993.9,N
1459606095.5,286046990.5,Y
1459606115.4,286046994.7,P
1459606135.2,286046997.0,N
1459606155.0,286046996.8,N
1459606155.9,286046996.8,N
1459606175.8,286046995.8,Y
1459606195.6,286047002.7,P
1459606215.4,286046999.8,N
1459606235.3,286047005.5,N
1459606255.1,286047002.5,N
1459606256.0,286047002.5,N
1459606275.8,286047000.4,N
1459606295.7,286047001.6,N
1459606315.5,286046998.8,N
1459606335.3,286046997.9,N
1459606355.2,286046996.4,N
1459606375.9,286046992.1,N
1459606395.7,286046995.7,N
1459606415.5,286046994.2,N
1459606435.4,286046993.3,N
1459606455.2,286046996.3,N
1459606475.0,286046996.0,N
1459606475.9,286046996.0,N
1459606495.8,286046995.5,N
1459606515.6,286046993.8,N
1459606535.4,286046997.5,N
1459606555.3,286046997.2,N
1459606575.1,286046995.4,N
1459606576.0,286046995.4,N
1459606595.8,286046998.0,N
1459606615.7,286046992.3,N
1459606635.5,286046991.9,N
1459606655.3,286046993.8,N
1459606675.2,286046993.3,N
1459606695.9,286046997.1,N
1459606715.7,286046997.2,N
1459606735.5,286046998.1,N
1459606755.4,286046999.2,N
1459606775.2,286046998.7,N
1459606795.0,286046995.0,N
1459606795.9,286046995.0,N
1459606815.8,286046994.9,N
1459606835.6,286046999.2,N
1459606855.4,286046998.4,N
1459606875.3,286046998.4,N
1459606895.1,286046999.5,N
1459606915.8,286046996.4,N
1459606935.7,286046995.8,N
1459606955.5,286046997.7,N
1459606975.3,286046997.6,N
1459606995.2,286046999.1,N
1459607015.9,286046997.4,N
1459607035.7,286046998.8,N
1459607055.6,286046998.5,N
1459607075.4,286046995.1,N
1459607095.2,286046997.3,N
1459607115.1,286046993.8,Y
1459607116.0,286046993.8,P
1459607135.8,286046999.6,N
1459607155.6,286046998.9,N
1459607175.5,286046996.8,N
1459607195.3,286046993.7,Y
1459607215.1,286047002.0,P
1459607235.9,286047004.3,N
1459607255.7,286047005.8,N
1459607275.5,286047005.7,N
1459607295.3,286047004.5,N
1459607315.2,286047008.9,N
1459607335.0,286047006.9,N
1459607335.9,286047006.9,N
1459607355.7,286047005.0,N
1459607375.6,286047002.5,N
1459607395.4,286047004.7,N
1459607415.2,286047009.1,Y
1459607435.1,286047001.6,P
1459607436.0,286047001.6,N
1459607455.8,286047004.1,N
1459607475.6,286047001.6,N
1459607495.5,286047004.3,Y
1459607515.3,286047000.0,P
1459607535.1,286046999.9,N
1459607555.9,286046995.6,P
1459607575.7,286046994.0,N
1459607595.5,286046996.1,N
1459607615.4,286046994.7,N
1459607635.2,286046993.2,N
1459607655.0,286046991.9,N
1459607655.9,286046991.9,N
1459607675.8,286046990.7,N
1459607695.6,286046987.1,Y
1459607715.4,286046992.5,P
1459607735.3,286046990.9,P
1459607755.1,286046992.1,P
1459607756.0,286046992.1,Y
1459607775.8,286046998.7,P
1459607795.7,286046998.5,N
1459607815.5,286046999.8,N
1459607835.3,286046998.3,N
1459607855.2,286046996.5,N
1459607875.9,286046997.8,N
1459607895.7,286046993.7,N
1459607915.6,286046995.7,N
1459607935.4,286046993.4,N
1459607955.2,286046994.5,N
1459607975.0,286046993.9,N
1459607976.0,286046993.9,N
1459607995.8,286046993.8,N
1459608015.6,286046988.9,Y
1459608035.5,286046994.7,P
1459608055.3,286046994.1,P
1459608075.1,286046990.4,P
1459608095.9,286046987.6,Y
1459608115.7,286046997.6,P
1459608135.5,286047001.1,N
1459608155.3,286047000.7,N
1459608175.2,286046998.2,N
1459608195.0,286047000.5,N
1459608195.9,286047000.5,N
1459608215.7,286047000.6,N
1459608235.6,286047003.6,N
1459608255.4,286047003.3,N
1459608275.2,286047003.6,N
1459608295.1,286047005.3,N
1459608296.0,286047005.3,N
1459608315.8,286047003.0,N
1459608335.6,286047009.2,N
1459608355.5,286047006.6,N
1459608375.3,286047006.2,N
1459608395.1,286047007.1,N
1459608415.9,286047008.1,N
1459608435.7,286047012.4,Y
1459608455.5,286047006.5,P
1459608475.4,286047006.3,P
1459608495.2,286047008.0,P
1459608515.0,286047007.0,Y
1459608515.9,286047007.0,P
1459608535.8,286047000.2,N
1459608555.6,286047000.2,N
1459608575.4,286047000.4,N
1459608595.3,286046999.5,N
1459608615.1,286046998.8,N
1459608616.0,286046998.8,N
1459608635.8,286046999.3,N
1459608655.7,286046996.9,N
1459608675.5,286046997.5,N
1459608695.3,286046994.6,N
1459608715.1,286046990.4,N
1459608735.9,286046990.6,N
1459608755.7,286046991.9,N
1459608775.5,286046992.4,N
1459608795.4,286046989.1,N
1459608815.2,286046989.8,N
1459608835.0,286046987.0,N
1459608835.9,286046987.0,N
1459608855.8,286046988.7,N
1459608875.6,286046989.7,N
1459608895.4,286046991.6,N
1459608915.3,286046987.1,N
1459608935.1,286046987.1,N
1459608936.0,286046987.1,N
1459608955.8,286046989.9,N
1459608975.7,286046986.9,N
1459608995.5,286046989.3,N
1459609015.3,286046987.3,N
1459609035.1,286046985.3,N
1459609055.9,286046986.6,N
1459609075.7,286046988.0,N
1459609095.5,286046986.4,N
1459609115.4,286046986.3,N
1459609135.2,286046986.5,Y
1459609155.0,286046994.3,P
1459609155.9,286046994.3,P
1459609175.8,286046991.9,P
1459609195.6,286046992.0,Y
